Regional Weather Roundup
Issued by NWS

Home | Current Version | Previous Version | Graphics & Text | Print | Product List | Glossary Off
Versions: 1 2 3 4 5 6 7 8 9 10 11 12 13 14 15 16 17 18 19 20 21 22 23 24 25 26 27 28 29 30 31 32 33 34 35 36 37 38 39 40 41 42 43 44 45 46 47 48 49 50

000
ASUS43 KMKX 270610
RWRWI

WISCONSIN REGIONAL WEATHER ROUNDUP
NATIONAL WEATHER SERVICE MILWAUKEE/SULLIVAN WI
1200 AM CST FRI FEB 27 2015

NOTE: "FAIR" INDICATES FEW OR NO CLOUDS BELOW 12,000 FEET WITH NO
SIGNIFICANT WEATHER AND/OR OBSTRUCTIONS TO VISIBILITY.

WIZ001-002-006>008-014>016-023>028-270700-
NORTHWEST WISCONSIN

CITY           SKY/WX    TMP DP  RH WIND       PRES   REMARKS
SUPERIOR ARPT  CLEAR      0 -13  56 CALM      30.46R
6HR MIN TEMP:   0; 6HR MAX TEMP:   7;

ASHLAND        CLEAR     -1 -12  59 SW7       30.41S WCI -14
6HR MIN TEMP:  -2; 6HR MAX TEMP:   5;

HAYWARD        CLEAR    -13 -21  67 CALM      30.39S
6HR MIN TEMP: -13; 6HR MAX TEMP:   6;

SIREN          CLEAR     -7 -13  73 CALM      30.45S
6HR MIN TEMP:  -8; 6HR MAX TEMP:   6;

CUMBERLAND     CLEAR      0 -13  55 W6        30.41R WCI -12
RICE LAKE      CLEAR     -4 -13  66 W3        30.44R
6HR MIN TEMP:  -5; 6HR MAX TEMP:   6;

CHETEK         CLEAR     -4 -11  70 CALM      30.43R
6HR MIN TEMP:  -4; 6HR MAX TEMP:   6;

LADYSMITH      CLEAR     -5 -12  71 W3        30.41R
6HR MIN TEMP:  -8; 6HR MAX TEMP:   7;

EAU CLAIRE     CLEAR     -3 -12  65 W3        30.45S
6HR MIN TEMP:  -4; 6HR MAX TEMP:   7;

MENOMONIE      CLEAR      0 -10  62 W5        30.46S WCI -10
6HR MIN TEMP:   0; 6HR MAX TEMP:   7;

NEW RICHMOND   CLEAR     -6 -13  71 W6        30.46S WCI -19
6HR MIN TEMP:  -6; 6HR MAX TEMP:   5;

OSCEOLA        CLEAR     -2 -10  67 W5        30.50S WCI -12
6HR MIN TEMP:  -2; 6HR MAX TEMP:   6;

$$

WIZ003>005-009-010-017-018-270700-
NORTH CENTRAL WISCONSIN

CITY           SKY/WX    TMP DP  RH WIND       PRES   REMARKS
MANITOWISH WTR CLEAR    -15 -20  77 CALM      30.30S
6HR MIN TEMP: -17; 6HR MAX TEMP:   0;

ARBOR VITAE    CLEAR     -9 -15  72 CALM      30.30S
6HR MIN TEMP:  -9; 6HR MAX TEMP:   4;

WOODRUFF       CLEAR     -9 -15  72 CALM      30.30S
6HR MIN TEMP:  -9; 6HR MAX TEMP:   4;

RHINELANDER    CLEAR    -11 -17  75 W7        30.30S WCI -26
6HR MIN TEMP: -12; 6HR MAX TEMP:   5;

EAGLE RIVER    CLEAR    -15 -21  74 CALM      30.29S
6HR MIN TEMP: -17; 6HR MAX TEMP:   3;

LAND O LAKES   CLEAR    -23 -29  74 CALM      30.29S
6HR MIN TEMP: -23; 6HR MAX TEMP:   3;

PHILLIPS       CLEAR    -15 -20  78 CALM      30.33S
6HR MIN TEMP: -15; 6HR MAX TEMP:   5;

TOMAHAWK       CLEAR    -18 -24  76 CALM      30.33S
6HR MIN TEMP: -18; 6HR MAX TEMP:   5;

MEDFORD        CLEAR     -9 -16  73 W3        30.34S
6HR MIN TEMP:  -9; 6HR MAX TEMP:   5;

MERRILL        CLEAR    -11 -17  75 CALM      30.35R
6HR MIN TEMP: -12; 6HR MAX TEMP:   8;

$$

WIZ029-030-035-036-043>047-270700-
CENTRAL WISCONSIN

CITY           SKY/WX    TMP DP  RH WIND       PRES   REMARKS
WAUSAU         PTCLDY    -1 -11  62 NW5       30.36S WCI -11
6HR MIN TEMP:  -2; 6HR MAX TEMP:   9;

MOSINEE        PTCLDY     0  -9  65 NW5       30.38R WCI -10
MARSHFIELD     CLEAR     -3 -12  65 W6        30.38S WCI -15
6HR MIN TEMP:  -4; 6HR MAX TEMP:   6;

STEVENS POINT  CLEAR     -3 -12  65 CALM      30.40R
6HR MIN TEMP:  -3; 6HR MAX TEMP:   7;

WAUPACA        CLEAR      3  -8  58 W3        30.42R
6HR MIN TEMP:   3; 6HR MAX TEMP:  12;

WAUTOMA        CLEAR      0 -10  62 NW7       30.43R WCI -13
6HR MIN TEMP:  -2; 6HR MAX TEMP:   7;

WISC RAPIDS    CLEAR     -1 -13  56 NW6       30.42R WCI -13
6HR MIN TEMP:  -2; 6HR MAX TEMP:   6;

CAMP DOUGLAS   NOT AVBL
$$

WIZ011>013-019>022-031-037>040-048>050-270700-
NORTHEAST WISCONSIN

CITY           SKY/WX    TMP DP  RH WIND       PRES   REMARKS
ANTIGO         CLEAR    -10 -16  75 W5        30.32S WCI -21
6HR MIN TEMP: -10; 6HR MAX TEMP:   4;

SHAWANO        CLEAR      1  -9  62 W3        30.41R
6HR MIN TEMP:   0; 6HR MAX TEMP:  13;

OCONTO         CLEAR     -9 -13  80 CALM      30.41S
6HR MIN TEMP: -10; 6HR MAX TEMP:   7;

STURGEON BAY   CLEAR      0  -9  65 CALM      30.41R
6HR MIN TEMP:   0; 6HR MAX TEMP:   7;

GREEN BAY      CLEAR      2  -7  66 NW5       30.41R WCI  -8
6HR MIN TEMP:   1; 6HR MAX TEMP:  10;

MANITOWOC      CLEAR      3  -5  69 W8        30.40S WCI -10
6HR MIN TEMP:  -2; 6HR MAX TEMP:   7;

APPLETON       CLEAR      1  -9  60 W10       30.40R WCI -14
CLINTONVILLE   CLEAR      1  -9  60 NW6       30.40R WCI -10
OSHKOSH        CLEAR      2  -8  63 W6        30.40R WCI  -9
6HR MIN TEMP:   2; 6HR MAX TEMP:   8;

$$

WIZ032>034-041-042-053>061-270700-
SOUTHWEST WISCONSIN

CITY           SKY/WX    TMP DP  RH WIND       PRES   REMARKS
LA CROSSE      CLEAR     -3 -10  72 CALM      30.49S
6HR MIN TEMP:  -6; 6HR MAX TEMP:   6;

SPARTA         CLEAR    -12 -17  79 CALM      30.46S
6HR MIN TEMP: -12; 6HR MAX TEMP:   7;

VIROQUA        CLEAR     -2  -8  73 W7        30.41R WCI -15
6HR MIN TEMP:  -2; 6HR MAX TEMP:   5;

BOSCOBEL       CLEAR     -7 -12  79 CALM      30.50R
6HR MIN TEMP:  -7; 6HR MAX TEMP:   9;

PRAIRIE DU CHI CLEAR     -3 -11  70 W3        30.51R
6HR MIN TEMP:  -5; 6HR MAX TEMP:   9;

PLATTEVILLE    CLEAR     -4 -10  75 W6        30.45R WCI -17
6HR MIN TEMP:  -4; 6HR MAX TEMP:   7;

$$

WIZ056-057-062-063-064-067-068-270700-
SOUTH CENTRAL WISCONSIN

CITY           SKY/WX    TMP DP  RH WIND       PRES   REMARKS
REEDSBURG      CLEAR      0  -8  67 CALM      30.44R
6HR MIN TEMP:   0; 6HR MAX TEMP:   9;

BARABOO/DELLS  CLEAR      0 -10  63 W5        30.42S WCI -10
6HR MIN TEMP:   0; 6HR MAX TEMP:   9;

LONE ROCK      CLEAR      0  -8  69 W8        30.47S WCI -14
6HR MIN TEMP:  -3; 6HR MAX TEMP:  11;

MINERAL POINT  CLEAR     -2  -9  71 NW3       30.42R
MADISON        CLEAR      0  -9  65 NW3       30.43S
6HR MIN TEMP:   0; 6HR MAX TEMP:  10;

MIDDLETON      CLEAR     -3 -11  69 CALM      30.43S
6HR MIN TEMP:  -4; 6HR MAX TEMP:   9;

WATERTOWN      CLEAR     -6 -11  81 CALM      30.41S
6HR MIN TEMP:  -6; 6HR MAX TEMP:   9;

MONROE         CLEAR      3  -6  66 NW7       30.41S WCI  -9
JANESVILLE     CLEAR     -4  -9  77 CALM      30.43S
$$

WIZ051-052-058>065-066-070>072-270700-
SOUTHEAST WISCONSIN

CITY           SKY/WX    TMP DP  RH WIND       PRES   REMARKS
MILWAUKEE      CLEAR      6  -5  60 NW6       30.42S WCI  -4
6HR MIN TEMP:   5; 6HR MAX TEMP:  11;

WAUKESHA       CLEAR      1  -8  66 W6        30.42S WCI -10
MILWAUKEE/TIMM CLEAR      1  -8  66 W3        30.43S
RACINE         CLEAR      2  -8  63 W6        30.44R WCI  -9
6HR MIN TEMP:   2; 6HR MAX TEMP:  11;

BURLINGTON     CLEAR    -13 -17  82 CALM      30.42S
6HR MIN TEMP: -13; 6HR MAX TEMP:   7;

KENOSHA        CLEAR     -6 -11  79 W6        30.42R WCI -19
6HR MIN TEMP:  -7; 6HR MAX TEMP:  10;

FOND DU LAC    PTCLDY     2  -8  63 W9        30.41R WCI -13
6HR MIN TEMP:   2; 6HR MAX TEMP:   8;

SHEBOYGAN      CLEAR      2  -7  66 W7        30.40S WCI -11
6HR MIN TEMP:  -3; 6HR MAX TEMP:   6;

WEST BEND      PTCLDY     3  -8  60 W5        30.40S WCI  -6
JUNEAU         PTCLDY     2  -8  62 W5        30.42S WCI  -8
6HR MIN TEMP:   2; 6HR MAX TEMP:   8;

$$

LSZ147-162-270700-
LAKE SUPERIOR

STATION/POSITION TIME  TEMP    WIND        PRES    WAVE
                       AIR SEA DIR/SP/G            HT/PER
                 (UTC) (F)     (DEG/KT/KT) (MB)    (FT/S)
DEVILS ISLAND    0600    6     330/  9/ 11 1031.5R
PORT WING        0500    7     300/  9/ 13 1030.5S
SAXON HARBOR     0500   -6     190/  3/  5 1029.5
$$

LMZ867-665-643>646-270700-
LAKE MICHIGAN

STATION/POSITION TIME  TEMP    WIND        PRES    WAVE
                       AIR SEA DIR/SP/G            HT/PER


USA.gov is the U.S. government's official web portal to all federal, state and local government web resources and services.